Tracking 29781 objects as of 15-Oct-2024
HD Live streaming from Space Station
objects crossing your sky now

DELTA 1 DEB

Track DELTA 1 DEB now!
10-day predictions


NORAD ID: 21272
Int'l Code: 1975-052H
Perigee: 1,060.0 km
Apogee: 1,532.3 km
Inclination: 99.8 °
Period: 111.4 minutes
Semi major axis: 7667 km
RCS: 0.0353 m2 (small)
Launch date: June 12, 1975
Source: United States (US)
Launch site: AIR FORCE WESTERN TEST RANGE (AFWTR)

Note: This is SATELLITE DEBRIS
Your satellite tracking list
Your tracking list is empty




NASA's NSSDC Master Catalog

Two Line Element Set (TLE):
1 21272U 75052H   24288.52259507  .00000185  00000-0  65764-3 0  9997
2 21272  99.8174 120.7204 0308015 190.0426 231.7590 12.93155861510698
Source of the keplerian elements: AFSPC